TOURFACTS.DK  
Stats and Facts from Tour de France.

Tour de France 2019 starts in 348 days
  Riders   Stages   Teams   Summits   Yearly  


 
Search by year

After 2018 - Stage 14:
 15000 starters.
  5163 different riders.
  639 teams.
  2246 stages.
  456 restdays.
  441957.60 km.
  5678 abandonnees.


Top 3
GC
Christopher Froome86:20:55
Rigoberto Urán86:21:49
Romain Bardet86:23:15
Climb
Warren Barguil169 pt.
Primoz Roglic80 pt.
Thomas De Gendt64 pt.
Sprint
Michael Matthews359 pt.
André Greipel234 pt.
Edvald Boasson Hagen220 pt.
Youth
Simon Yates86:27:09
Louis Meintjes86:29:15
Emanuel Buchmann86:54:16
Facts from Tour de France 1931
  |   Stages.  |   Stage winners.  |   Days in yellow  |   Average speed.  |   Route.  |   Teams.  |   All riders.  |   Rookies.  |  

  |   Withdrawls.  |   GC.  |   Polka  |   Green  |   White  |   Summits. (In tour)  |   Miscellaneous.  |  

Stage 9 on July 8th. 1931
         Owning:    Antonin Magne    
Pick a stage:  1 2 3 4 5 6 7 8 9 10 11 12 13 14 15 16 17 18 19 20 21 22 23 24
From: Pau    To: LuchonDist:231.00 km.

Average speed for all riders in stage:  23,883 km./hr.
    Place:Name:Team:Time:Km/h:
FRAAntonin MagneFRAFrance08:56:03  +  00:00:00=25,856 
ITAAntonio PesentiITAItaly09:00:45  +  00:04:42=25,631 
BELJef DemuysereBELBelgium09:03:47  +  00:07:44=25,488 
4 BELMaurice De WaeleBELBelgium09:03:47  +  00:07:44=25,488 
5 SUIAlbert BüchiCHEAustralia-Switzerland09:03:47  +  00:07:44=25,488 
6 FRALouis PeglionFRAFrance09:10:02  +  00:13:59=25,198 
7 FRALéon Le CalvezFRAFrance09:10:02  +  00:13:59=25,198 
8 BELAlfons SchepersBELBelgium09:16:50  +  00:20:47=24,891 
9 FRAJoseph MauclairFRAFrance09:16:50  +  00:20:47=24,891 
10 BELGaston RebryBELBelgium09:16:50  +  00:20:47=24,891 
11 BELAuguste Van TrichtTouristes Routiers09:16:50  +  00:20:47=24,891 
12 ITAFelice GremoITAItaly09:16:50  +  00:20:47=24,891 
13 ITAAlessandro CatalaniTouristes Routiers09:16:50  +  00:20:47=24,891 
14 AUSHubert OppermanCHEAustralia-Switzerland09:16:59  +  00:20:56=24,884 
15 GERErich MetzeDEUGermany09:17:59  +  00:21:56=24,839 
16 ITAGiuseppe PanceraTouristes Routiers09:19:33  +  00:23:30=24,770 
17 GEROskar ThierbachDEUGermany09:19:33  +  00:23:30=24,770 
18 BELJulien VervaeckeBELBelgium09:19:33  +  00:23:30=24,770 
19 ESPFrancisco CepedaESPSpain09:19:33  +  00:23:30=24,770 
20 FRAAdrien ButtafocchiTouristes Routiers09:24:43  +  00:28:40=24,543 
21 FRAMarius GuiramandTouristes Routiers09:24:43  +  00:28:40=24,543 
22 FRAAndré LeducqFRAFrance09:24:43  +  00:28:40=24,543 
23 FRABenoit FaureFRAFrance09:24:43  +  00:28:40=24,543 
24 BELGerard LonckeTouristes Routiers09:26:33  +  00:30:30=24,464 
25 FRAFernand FayolleTouristes Routiers09:26:33  +  00:30:30=24,464 
26 GERKurt StöpelDEUGermany09:26:33  +  00:30:30=24,464 
27 FRACharles PelissierFRAFrance09:26:33  +  00:30:30=24,464 
28 SUIRoger PipozCHEAustralia-Switzerland09:26:33  +  00:30:30=24,464 
29 FRALouis BajardTouristes Routiers09:28:48  +  00:32:45=24,367 
30 ITAAmulio ViarengoTouristes Routiers09:30:26  +  00:34:23=24,297 
31 AUTMax BullaTouristes Routiers09:34:17  +  00:38:14=24,134 
32 FRAJean MaréchalFRAFrance09:34:17  +  00:38:14=24,134 
33 GERHerbert SieronskiDEUGermany09:34:17  +  00:38:14=24,134 
34 GERHermann BuseDEUGermany09:34:17  +  00:38:14=24,134 
35 FRALazare VenotTouristes Routiers09:34:17  +  00:38:14=24,134 
36 POLAlfred SiegelDEUGermany09:34:17  +  00:38:14=24,134 
37 FRAAndré GodinatTouristes Routiers09:34:17  +  00:38:14=24,134 
38 FRARobert BrugéreTouristes Routiers09:35:05  +  00:39:02=24,101 
39 BELRobert Van GrootenbrueleTouristes Routiers09:36:31  +  00:40:28=24,041 
40 FRARené BernardTouristes Routiers09:45:36  +  00:49:33=23,668 
41 BELFrançois MoreelsTouristes Routiers09:45:36  +  00:49:33=23,668 
42 SUIGeorges AntenenCHEAustralia-Switzerland09:45:42  +  00:49:39=23,664 
43 GERLudwig GeyerDEUGermany09:45:42  +  00:49:39=23,664 
44 FRAJean BidotTouristes Routiers09:45:42  +  00:49:39=23,664 
45 FRAFrancois HenriTouristes Routiers09:45:42  +  00:49:39=23,664 
46 BELJules GoedhuysTouristes Routiers09:45:42  +  00:49:39=23,664 
47 GERKarl AltenburgerDEUGermany09:45:42  +  00:49:39=23,664 
48 BELRomain GijsselsBELBelgium09:50:55  +  00:54:52=23,455 
49 FRAFrancis BouilletTouristes Routiers09:50:55  +  00:54:52=23,455 
50 GERKurt NitzschkeTouristes Routiers09:50:55  +  00:54:52=23,455 
51 AUSRichard LambCHEAustralia-Switzerland09:50:55  +  00:54:52=23,455 
52 BELBernard Van RysselbergheBELBelgium10:12:47  +  01:16:44=22,618 
53 BELAlfred HamerlinckBELBelgium10:12:47  +  01:16:44=22,618 
54 BELAchille ViaeneTouristes Routiers10:12:47  +  01:16:44=22,618 
55 FRAAndré Van VierstTouristes Routiers10:14:10  +  01:18:07=22,567 
56 FRAGeorges BertonTouristes Routiers10:14:10  +  01:18:07=22,567 
57 ITAMichele OrecchiaITAItaly10:19:02  +  01:22:59=22,390 
58 ITAEugenio GestriITAItaly10:19:02  +  01:22:59=22,390 
59 ITARafaële Di PacoITAItaly10:19:02  +  01:22:59=22,390 
60 ITALuigi GiacobbeITAItaly10:19:02  +  01:22:59=22,390 
61 FRAFrancois FavéTouristes Routiers10:23:40  +  01:27:37=22,223 
62 GERErich UssatTouristes Routiers10:37:12  +  01:41:09=21,751 
63 ITAFabio BattesiniITAItaly11:31:45  +  02:35:42=20,036 
64 ITAFrancesco CamussoITAItaly11:31:45  +  02:35:42=20,036 

Withdrawls: 1
 
Rider
Team
Reason
106  BELJean NaertTouristes RoutiersDid not finish

Todays birthdays.

1877  Antoine Perrichon
1878  Auguste Berthault
1911  Théo Herckenrath
1924  Carlo Lafranchi
1931  Armand Di Caro
1937  Jean-Claude Lebaube
1951  Giovanni Battaglin
1961  Pascal Jules
1962  Jean-Claude Leclercq
1976  Janek Tombak
1978  Francisco Pérez
1983  Dries Devenyns




Visits: